Location: Casilda
(33.0440°S, 61.1680°W)
Time: 04:05:12
(UTC-03:00)

ISS - Pass Details

Date: 07 August 2020
Orbit: 418 x 420 km, 51.6° (Epoch: 11 August)

Event Time Altitude Azimuth Distance (km) Brightness Sun altitude
Exits shadow 06:55:19 - 202° (SSW) 1,888 -0.8 -11.9°
Reaches altitude 10° 06:56:32 10° 189° (S) 1,525 -1.1 -11.6°
Maximum altitude 06:58:48 16° 148° (SSE) 1,187 -1.2 -11.1°
Drops below altitude 10° 07:01:03 10° 106° (ESE) 1,516 0.1 -10.7°
Sets 07:03:43 0° 84° (E) 2,374 2.2 -10.1°
